SCP
0 0 0 0 0 0 0 0 0 0 0 0 0 0 0 0 0 0 0 0 0 0 0 0 0 0 0 0 0 0 0 0 0 0 -0 0 0 0 0 0 0 -0 -0
0 0 0 0 0 0 0 0 0 0 0 0 0 0 0 0 0 0 0 1 0 0 0 0 0 0 0 0 0 0 0 0 0 -0 -0 0 0 0 -0 -0 -0 -0 -0
0 0 0 0 0 0 0 0 0 0 0 0 0 0 0 0 0 0 0 0 1 0 0 0 0 0 0 0 0 0 0 0 0 -0 -0 0 0 0 -0 0 -0 -0 -0
0 0 0 0 0 0 0 0 0 0 0 0 0 0 0 0 0 0 0 0 0 0 1 0 0 0 0 0 0 0 0 0 0 0 0 0 0 0 0 0 -0 -0 0
0 0 0 0 0 0 0 0 0 0 0 0 0 0 0 0 0 0 0 0 0 0 0 0 0 0 0 0 0 0 0 0 0 0 -0 0 0 0 0 0 0 -0 -0
0 0 1 0 0 0 0 0 0 0 0 0 0 0 0 0 0 0 0 0 0 0 0 0 0 0 0 0 0 0 0 0 0 0 0 0 0 0 0 0 0 0 -0
1 0 1 1 0 0 0 0 0 0 0 0 0 0 0 0 0 0 0 0 0 0 0 0 0 0 0 0 0 0 0 0 0 0 0 0 0 0 0 0 0 -0 -0
2 1 1 1 1 1 0 0 0 0 0 0 0 0 0 0 0 0 0 0 0 0 0 0 0 0 0 0 0 0 0 0 0 0 0 0 0 0 0 0 0 -0 0
2 2 2 1 1 1 1 0 0 0 0 0 0 0 0 0 0 0 0 0 0 0 0 0 0 0 0 0 0 0 0 0 0 0 0 0 0 0 -0 0 0 0 0
2 2 2 1 1 1 1 1 0 0 0 0 0 0 0 0 0 0 0 0 0 0 0 0 0 0 0 0 0 0 0 0 0 0 -0 -0 0 0 -0 0 0 0 0
2 2 2 1 1 1 1 1 0 0 0 0 0 0 0 0 0 0 0 0 0 0 0 0 0 0 0 0 0 0 0 0 0 0 0 -0 0 0 0 0 0 0 0
2 2 2 1 1 1 1 1 0 0 0 0 0 0 0 0 0 0 0 0 0 0 0 0 0 0 0 0 0 0 0 0 0 0 0 -0 -0 0 0 0 0 0 -0
2 2 2 1 1 1 1 0 1 0 0 0 0 0 0 0 0 0 0 0 0 0 0 0 0 -0 -0 0 0 0 0 0 0 0 0 -0 0 0 0 0 -0 -0 -0
2 1 1 1 1 1 1 0 0 0 0 0 0 0 0 0 0 0 0 0 0 0 0 0 0 -0 0 0 0 0 0 0 0 0 -0 -0 0 0 0 0 0 -0 0
2 1 1 1 1 1 0 0 0 0 0 0 0 0 0 0 0 0 0 0 0 0 0 0 0 0 0 0 0 0 0 0 0 0 0 0 0 0 0 0 0 0 0
2 1 1 1 1 0 0 0 0 0 0 0 0 0 0 0 0 0 0 0 0 0 0 0 0 0 0 0 0 0 0 0 0 0 0 -0 0 0 0 -0 0 0 0
1 1 1 1 0 0 0 0 0 0 0 0 0 0 0 0 0 0 0 0 0 0 0 0 0 0 0 0 0 0 0 0 0 0 0 0 0 0 -0 -0 -0 0 0
1 1 1 0 0 0 0 0 0 0 0 0 0 0 0 0 0 0 0 0 0 0 0 0 0 0 0 0 0 0 0 0 0 0 0 0 0 0 -0 0 0 0 0
0 0 0 0 0 0 0 0 0 0 0 0 0 0 0 0 0 0 0 0 0 0 0 0 0 0 0 0 0 0 0 0 0 0 0 0 0 0 -0 0 0 0 0
0 0 0 0 0 0 0 0 0 0 0 0 0 0 0 0 0 0 0 0 0 0 0 0 0 0 0 0 0 0 0 0 0 0 0 0 0 0 0 0 0 0 0
0 0 0 0 0 0 0 0 0 0 0 0 0 0 0 0 0 0 0 0 0 0 0 0 0 0 0 0 0 0 0 0 0 0 0 0 0 0 0 0 0 0 0
0 0 0 0 0 0 0 0 0 0 0 0 0 0 0 0 0 0 0 0 0 0 0 0 0 0 0 0 0 0 0 0 0 0 0 0 0 0 0 0 0 0 0
0 0 0 0 0 0 0 0 0 0 0 0 0 0 0 0 0 0 0 0 0 0 0 0 0 0 0 0 0 0 0 0 0 0 0 0 0 0 0 0 0 0 0
0 0 0 0 0 0 0 0 0 0 0 0 0 0 0 0 0 0 0 0 0 0 0 0 0 0 0 0 0 0 0 0 0 0 0 0 0 0 0 0 0 0 0
0 0 0 0 0 0 0 0 0 0 0 0 0 0 0 -0 -0 -0 0 0 0 0 0 0 0 0 0 0 0 0 0 0 0 0 0 0 0 0 0 0 0 0 0
0 0 0 0 0 0 0 0 0 0 0 0 0 0 -0 -0 -0 0 -0 0 0 0 0 0 0 0 0 0 0 0 0 0 0 0 0 0 0 0 0 0 0 0 0
Wind_Speed_500mb
38 37 38 43 49 52 51 51 51 49 50 50 50 48 41 37 35 30 32 33 30 30 27 28 30 31 23 28 33 33 34 31 36 36 34 43 43 41 37 38 33 28 21
40 38 36 36 40 40 43 42 41 39 35 32 36 37 30 29 32 33 34 35 33 35 35 34 32 28 24 26 34 36 36 36 32 33 39 42 50 41 33 38 32 22 17
46 43 42 41 41 34 37 39 36 38 40 33 29 30 32 29 30 38 41 43 38 36 40 37 34 30 26 26 33 39 39 38 37 34 38 45 41 44 38 35 30 25 21
53 48 47 51 43 41 38 39 40 40 41 38 37 33 35 36 39 41 39 38 36 42 45 45 41 35 26 25 31 40 43 40 38 36 36 43 41 43 43 35 40 30 28
55 54 53 58 49 46 43 39 42 46 43 35 39 38 37 38 39 41 44 47 53 52 49 46 46 40 31 28 32 39 45 44 40 38 36 40 43 41 45 39 35 31 31
57 54 57 58 51 50 45 41 46 44 46 43 42 38 43 49 48 49 49 53 56 52 42 43 49 39 32 31 36 37 44 46 45 41 36 40 43 39 42 43 33 26 6
59 56 56 53 50 51 45 42 43 51 51 39 38 39 41 47 51 51 53 53 41 37 37 39 42 38 38 41 40 37 44 45 47 45 41 38 41 39 41 45 34 34 29
51 51 51 48 48 47 45 45 45 44 44 45 47 49 45 48 52 52 42 33 33 35 39 41 42 46 45 45 50 38 43 46 44 45 43 41 39 41 35 39 30 34 46
50 49 45 44 43 46 45 48 51 43 43 45 46 40 15 20 32 30 23 26 28 31 34 38 38 41 41 37 51 37 41 49 45 44 44 40 40 42 43 40 40 33 36
56 50 44 43 40 45 43 40 42 40 41 45 47 48 44 39 19 12 15 14 20 20 24 29 30 29 37 42 36 45 46 49 47 43 43 39 42 43 47 38 36 30 27
58 52 42 42 41 44 39 37 36 35 35 41 46 46 41 37 39 35 30 18 16 16 22 21 21 24 25 19 44 34 41 43 44 42 41 40 42 43 43 44 39 29 26
56 52 40 42 38 37 39 38 32 30 30 34 42 39 37 36 36 34 29 22 18 18 15 18 17 17 21 25 28 34 40 43 39 43 41 40 41 46 46 42 35 32 26
61 53 43 36 36 39 35 34 30 31 33 30 33 32 33 34 34 26 24 22 15 17 12 11 13 17 22 20 23 22 26 40 44 43 43 42 47 47 45 40 36 31 26
60 49 41 34 34 38 40 32 29 30 29 29 30 32 33 35 31 28 28 23 17 18 15 11 15 19 23 20 24 24 31 40 44 43 40 43 48 50 46 41 38 32 34
55 48 37 38 42 46 37 35 32 32 29 28 29 29 29 28 28 26 23 21 18 16 19 16 13 20 20 26 26 25 28 32 40 41 38 44 47 48 40 39 37 42 33
57 45 37 40 49 42 36 31 28 28 27 25 22 22 23 24 25 25 23 20 20 16 14 20 20 17 20 23 29 33 28 28 31 37 44 50 48 42 34 31 29 34 34
58 44 43 46 48 40 34 28 24 23 25 20 20 20 20 24 26 24 27 23 22 23 18 21 22 23 28 28 49 25 25 25 30 37 43 43 42 36 32 36 25 29 37
54 46 47 48 44 36 25 26 24 24 24 18 16 21 20 20 22 22 23 28 23 22 23 25 33 29 25 34 37 28 26 29 30 38 42 42 39 37 40 37 34 34 37
58 53 49 48 41 34 30 30 28 25 23 19 16 18 20 20 18 18 21 27 25 24 22 23 35 35 33 33 38 33 32 33 32 34 38 36 37 39 40 38 37 37 34
53 50 48 45 38 31 32 29 28 30 24 21 17 19 21 21 21 22 23 25 29 27 28 26 30 39 37 32 35 37 38 36 38 38 38 38 41 41 36 34 36 36 35
50 48 45 36 30 31 24 19 25 25 20 18 18 21 22 21 19 25 27 32 29 31 26 28 29 44 41 40 37 44 45 45 42 42 38 40 43 42 39 38 40 38 34
52 47 40 37 31 31 30 21 20 20 21 21 21 23 23 23 22 25 23 33 24 25 30 31 34 42 48 45 41 41 46 46 44 41 42 47 44 42 39 41 42 41 37
47 43 40 38 36 31 35 25 24 24 25 21 21 23 24 23 21 21 26 20 32 20 21 17 28 37 52 52 47 46 41 53 54 53 46 50 48 42 45 41 43 39 36
44 42 44 36 33 30 34 26 26 26 24 21 23 25 23 22 22 24 29 25 26 29 23 19 23 29 45 43 42 45 49 52 48 53 47 54 49 52 49 43 40 40 36
43 40 38 35 32 33 30 27 29 27 26 24 21 21 19 17 20 25 25 27 34 31 25 18 15 24 35 42 44 43 49 59 50 53 49 51 52 51 49 39 36 36 36
43 41 36 27 27 26 27 26 26 24 23 20 18 17 14 15 24 27 27 26 31 27 26 22 26 30 38 43 39 40 47 56 60 49 52 46 46 49 37 42 39 39 37
Wind_Direction_500mb
264 267 272 270 269 265 262 259 258 260 265 271 269 265 264 255 233 241 249 254 253 245 260 286 298 295 293 250 236 223 218 221 219 214 218 214 219 223 231 212 220 225 234
275 275 273 277 276 274 269 258 253 256 262 277 274 256 254 257 240 247 259 242 244 267 259 266 269 280 288 251 238 229 219 219 220 214 208 221 223 218 220 207 220 229 227
280 281 279 274 279 283 275 262 250 251 254 259 265 255 244 246 251 254 258 258 258 266 260 258 258 268 279 253 237 231 225 219 221 216 210 222 227 221 214 216 219 212 214
276 280 281 276 275 278 274 266 255 255 258 258 264 256 248 249 260 273 265 271 263 268 264 258 259 261 271 259 244 232 227 220 217 217 213 218 229 222 214 222 223 224 216
276 278 279 275 268 268 263 263 254 253 255 265 271 266 258 255 260 268 268 272 280 272 264 256 260 254 268 253 247 234 228 223 218 217 214 218 228 226 218 220 229 227 224
272 277 271 270 262 259 259 255 249 252 260 268 266 264 258 259 261 266 272 281 281 277 255 248 240 246 247 246 248 237 228 225 221 217 217 219 225 230 221 221 220 232 287
274 274 265 264 256 253 255 251 248 249 257 259 255 249 248 254 262 270 279 284 272 270 261 269 247 237 248 241 231 235 224 224 222 219 219 220 221 225 213 217 234 192 187
268 267 264 262 254 253 248 239 235 239 245 252 253 256 260 265 268 276 274 268 270 262 258 258 246 250 256 254 235 229 222 220 221 218 220 221 221 220 213 211 212 193 204
262 263 262 257 253 247 244 247 238 240 245 248 250 247 248 253 273 278 273 274 272 268 269 262 254 253 246 241 225 225 224 216 218 217 220 222 220 215 215 208 214 204 209
258 259 258 253 248 241 244 234 233 239 242 246 248 245 251 254 265 286 296 264 282 273 271 259 256 250 234 238 240 221 221 215 216 216 219 221 219 211 215 210 208 205 209
254 255 253 247 242 242 224 226 234 234 240 245 249 251 252 254 254 263 284 286 277 274 267 259 253 247 244 236 208 215 216 213 216 215 218 221 214 210 211 204 207 206 210
247 247 247 251 242 223 217 222 228 220 239 244 249 247 248 250 254 260 260 278 286 280 261 252 259 248 245 220 213 209 218 220 214 214 220 222 210 202 201 201 203 206 210
241 239 244 237 224 221 219 224 212 225 234 241 243 247 249 251 253 251 255 265 261 276 259 230 231 218 224 221 208 210 209 205 204 211 217 213 203 200 198 200 203 203 195
241 244 239 233 228 203 213 210 215 222 234 244 242 249 252 252 243 249 256 251 238 239 240 233 206 202 209 209 209 207 196 195 203 209 213 211 201 194 192 199 196 196 189
238 233 233 221 203 214 210 213 218 224 237 240 244 249 248 241 244 243 242 233 226 215 224 222 212 207 211 209 206 191 193 197 204 209 202 192 196 193 191 192 192 188 185
229 223 224 215 205 205 210 211 215 231 233 230 230 237 238 236 231 227 227 237 228 229 226 221 209 205 191 196 192 180 188 191 190 196 189 191 186 189 191 186 186 187 180
213 209 199 197 202 202 201 213 223 225 220 217 231 236 236 235 231 229 229 226 227 227 227 205 196 181 191 171 169 174 182 184 186 186 185 186 184 190 183 166 161 180 182
205 195 191 195 192 194 208 227 225 228 214 221 242 231 227 226 230 238 234 231 234 223 222 199 181 178 179 173 182 189 185 186 187 182 183 184 185 183 178 175 162 181 178
197 184 187 188 187 193 214 224 219 223 211 223 234 233 227 220 226 235 236 226 225 215 205 205 187 188 178 179 179 183 184 184 183 181 179 186 188 183 184 178 176 178 182
189 180 185 185 189 206 211 217 223 209 212 226 239 239 228 228 234 236 235 229 221 218 199 201 201 190 184 182 187 182 178 180 178 177 177 185 188 178 183 182 182 182 183
177 176 176 184 196 190 195 188 190 200 221 233 241 232 225 226 241 251 244 235 218 217 207 200 200 183 187 184 193 188 184 179 174 175 172 170 177 177 178 185 189 187 192
172 175 179 185 187 189 187 201 208 221 238 253 249 225 223 222 265 250 226 218 211 214 212 207 208 199 194 194 191 193 190 173 166 174 181 180 180 184 190 190 192 192 202
173 177 182 187 187 199 201 205 207 224 243 254 236 224 226 261 266 234 217 217 208 214 226 232 224 212 195 191 189 191 193 185 178 176 180 184 185 195 198 196 197 201 203
175 178 179 186 189 193 205 215 212 224 238 235 229 224 239 267 257 219 207 210 202 194 203 224 226 230 210 190 195 202 195 190 181 176 188 187 194 201 194 200 211 209 209
179 182 180 185 190 198 205 213 223 226 228 226 228 226 250 258 218 202 192 195 185 185 175 155 165 182 183 193 199 194 192 181 183 186 182 199 198 195 201 209 220 219 218
176 182 186 195 199 212 215 215 224 225 223 214 219 226 244 202 183 184 174 181 180 180 183 179 170 173 183 192 199 200 195 190 188 187 192 197 196 201 203 217 230 225 226
Wind_Speed_850mb
38 37 38 43 49 52 51 51 51 49 50 50 50 48 41 37 35 30 32 33 30 30 27 28 30 31 23 28 33 33 34 31 36 36 34 43 43 41 37 38 33 28 21
40 38 36 36 40 40 43 42 41 39 35 32 36 37 30 29 32 33 34 35 33 35 35 34 32 28 24 26 34 36 36 36 32 33 39 42 50 41 33 38 32 22 17
46 43 42 41 41 34 37 39 36 38 40 33 29 30 32 29 30 38 41 43 38 36 40 37 34 30 26 26 33 39 39 38 37 34 38 45 41 44 38 35 30 25 21
53 48 47 51 43 41 38 39 40 40 41 38 37 33 35 36 39 41 39 38 36 42 45 45 41 35 26 25 31 40 43 40 38 36 36 43 41 43 43 35 40 30 28
55 54 53 58 49 46 43 39 42 46 43 35 39 38 37 38 39 41 44 47 53 52 49 46 46 40 31 28 32 39 45 44 40 38 36 40 43 41 45 39 35 31 31
57 54 57 58 51 50 45 41 46 44 46 43 42 38 43 49 48 49 49 53 56 52 42 43 49 39 32 31 36 37 44 46 45 41 36 40 43 39 42 43 33 26 6
59 56 56 53 50 51 45 42 43 51 51 39 38 39 41 47 51 51 53 53 41 37 37 39 42 38 38 41 40 37 44 45 47 45 41 38 41 39 41 45 34 34 29
51 51 51 48 48 47 45 45 45 44 44 45 47 49 45 48 52 52 42 33 33 35 39 41 42 46 45 45 50 38 43 46 44 45 43 41 39 41 35 39 30 34 46
50 49 45 44 43 46 45 48 51 43 43 45 46 40 15 20 32 30 23 26 28 31 34 38 38 41 41 37 51 37 41 49 45 44 44 40 40 42 43 40 40 33 36
56 50 44 43 40 45 43 40 42 40 41 45 47 48 44 39 19 12 15 14 20 20 24 29 30 29 37 42 36 45 46 49 47 43 43 39 42 43 47 38 36 30 27
58 52 42 42 41 44 39 37 36 35 35 41 46 46 41 37 39 35 30 18 16 16 22 21 21 24 25 19 44 34 41 43 44 42 41 40 42 43 43 44 39 29 26
56 52 40 42 38 37 39 38 32 30 30 34 42 39 37 36 36 34 29 22 18 18 15 18 17 17 21 25 28 34 40 43 39 43 41 40 41 46 46 42 35 32 26
61 53 43 36 36 39 35 34 30 31 33 30 33 32 33 34 34 26 24 22 15 17 12 11 13 17 22 20 23 22 26 40 44 43 43 42 47 47 45 40 36 31 26
60 49 41 34 34 38 40 32 29 30 29 29 30 32 33 35 31 28 28 23 17 18 15 11 15 19 23 20 24 24 31 40 44 43 40 43 48 50 46 41 38 32 34
55 48 37 38 42 46 37 35 32 32 29 28 29 29 29 28 28 26 23 21 18 16 19 16 13 20 20 26 26 25 28 32 40 41 38 44 47 48 40 39 37 42 33
57 45 37 40 49 42 36 31 28 28 27 25 22 22 23 24 25 25 23 20 20 16 14 20 20 17 20 23 29 33 28 28 31 37 44 50 48 42 34 31 29 34 34
58 44 43 46 48 40 34 28 24 23 25 20 20 20 20 24 26 24 27 23 22 23 18 21 22 23 28 28 49 25 25 25 30 37 43 43 42 36 32 36 25 29 37
54 46 47 48 44 36 25 26 24 24 24 18 16 21 20 20 22 22 23 28 23 22 23 25 33 29 25 34 37 28 26 29 30 38 42 42 39 37 40 37 34 34 37
58 53 49 48 41 34 30 30 28 25 23 19 16 18 20 20 18 18 21 27 25 24 22 23 35 35 33 33 38 33 32 33 32 34 38 36 37 39 40 38 37 37 34
53 50 48 45 38 31 32 29 28 30 24 21 17 19 21 21 21 22 23 25 29 27 28 26 30 39 37 32 35 37 38 36 38 38 38 38 41 41 36 34 36 36 35
50 48 45 36 30 31 24 19 25 25 20 18 18 21 22 21 19 25 27 32 29 31 26 28 29 44 41 40 37 44 45 45 42 42 38 40 43 42 39 38 40 38 34
52 47 40 37 31 31 30 21 20 20 21 21 21 23 23 23 22 25 23 33 24 25 30 31 34 42 48 45 41 41 46 46 44 41 42 47 44 42 39 41 42 41 37
47 43 40 38 36 31 35 25 24 24 25 21 21 23 24 23 21 21 26 20 32 20 21 17 28 37 52 52 47 46 41 53 54 53 46 50 48 42 45 41 43 39 36
44 42 44 36 33 30 34 26 26 26 24 21 23 25 23 22 22 24 29 25 26 29 23 19 23 29 45 43 42 45 49 52 48 53 47 54 49 52 49 43 40 40 36
43 40 38 35 32 33 30 27 29 27 26 24 21 21 19 17 20 25 25 27 34 31 25 18 15 24 35 42 44 43 49 59 50 53 49 51 52 51 49 39 36 36 36
43 41 36 27 27 26 27 26 26 24 23 20 18 17 14 15 24 27 27 26 31 27 26 22 26 30 38 43 39 40 47 56 60 49 52 46 46 49 37 42 39 39 37
Wind_Direction_850mb
264 267 272 270 269 265 262 259 258 260 265 271 269 265 264 255 233 241 249 254 253 245 260 286 298 295 293 250 236 223 218 221 219 214 218 214 219 223 231 212 220 225 234
275 275 273 277 276 274 269 258 253 256 262 277 274 256 254 257 240 247 259 242 244 267 259 266 269 280 288 251 238 229 219 219 220 214 208 221 223 218 220 207 220 229 227
280 281 279 274 279 283 275 262 250 251 254 259 265 255 244 246 251 254 258 258 258 266 260 258 258 268 279 253 237 231 225 219 221 216 210 222 227 221 214 216 219 212 214
276 280 281 276 275 278 274 266 255 255 258 258 264 256 248 249 260 273 265 271 263 268 264 258 259 261 271 259 244 232 227 220 217 217 213 218 229 222 214 222 223 224 216
276 278 279 275 268 268 263 263 254 253 255 265 271 266 258 255 260 268 268 272 280 272 264 256 260 254 268 253 247 234 228 223 218 217 214 218 228 226 218 220 229 227 224
272 277 271 270 262 259 259 255 249 252 260 268 266 264 258 259 261 266 272 281 281 277 255 248 240 246 247 246 248 237 228 225 221 217 217 219 225 230 221 221 220 232 287
274 274 265 264 256 253 255 251 248 249 257 259 255 249 248 254 262 270 279 284 272 270 261 269 247 237 248 241 231 235 224 224 222 219 219 220 221 225 213 217 234 192 187
268 267 264 262 254 253 248 239 235 239 245 252 253 256 260 265 268 276 274 268 270 262 258 258 246 250 256 254 235 229 222 220 221 218 220 221 221 220 213 211 212 193 204
262 263 262 257 253 247 244 247 238 240 245 248 250 247 248 253 273 278 273 274 272 268 269 262 254 253 246 241 225 225 224 216 218 217 220 222 220 215 215 208 214 204 209
258 259 258 253 248 241 244 234 233 239 242 246 248 245 251 254 265 286 296 264 282 273 271 259 256 250 234 238 240 221 221 215 216 216 219 221 219 211 215 210 208 205 209
254 255 253 247 242 242 224 226 234 234 240 245 249 251 252 254 254 263 284 286 277 274 267 259 253 247 244 236 208 215 216 213 216 215 218 221 214 210 211 204 207 206 210
247 247 247 251 242 223 217 222 228 220 239 244 249 247 248 250 254 260 260 278 286 280 261 252 259 248 245 220 213 209 218 220 214 214 220 222 210 202 201 201 203 206 210
241 239 244 237 224 221 219 224 212 225 234 241 243 247 249 251 253 251 255 265 261 276 259 230 231 218 224 221 208 210 209 205 204 211 217 213 203 200 198 200 203 203 195
241 244 239 233 228 203 213 210 215 222 234 244 242 249 252 252 243 249 256 251 238 239 240 233 206 202 209 209 209 207 196 195 203 209 213 211 201 194 192 199 196 196 189
238 233 233 221 203 214 210 213 218 224 237 240 244 249 248 241 244 243 242 233 226 215 224 222 212 207 211 209 206 191 193 197 204 209 202 192 196 193 191 192 192 188 185
229 223 224 215 205 205 210 211 215 231 233 230 230 237 238 236 231 227 227 237 228 229 226 221 209 205 191 196 192 180 188 191 190 196 189 191 186 189 191 186 186 187 180
213 209 199 197 202 202 201 213 223 225 220 217 231 236 236 235 231 229 229 226 227 227 227 205 196 181 191 171 169 174 182 184 186 186 185 186 184 190 183 166 161 180 182
205 195 191 195 192 194 208 227 225 228 214 221 242 231 227 226 230 238 234 231 234 223 222 199 181 178 179 173 182 189 185 186 187 182 183 184 185 183 178 175 162 181 178
197 184 187 188 187 193 214 224 219 223 211 223 234 233 227 220 226 235 236 226 225 215 205 205 187 188 178 179 179 183 184 184 183 181 179 186 188 183 184 178 176 178 182
189 180 185 185 189 206 211 217 223 209 212 226 239 239 228 228 234 236 235 229 221 218 199 201 201 190 184 182 187 182 178 180 178 177 177 185 188 178 183 182 182 182 183
177 176 176 184 196 190 195 188 190 200 221 233 241 232 225 226 241 251 244 235 218 217 207 200 200 183 187 184 193 188 184 179 174 175 172 170 177 177 178 185 189 187 192
172 175 179 185 187 189 187 201 208 221 238 253 249 225 223 222 265 250 226 218 211 214 212 207 208 199 194 194 191 193 190 173 166 174 181 180 180 184 190 190 192 192 202
173 177 182 187 187 199 201 205 207 224 243 254 236 224 226 261 266 234 217 217 208 214 226 232 224 212 195 191 189 191 193 185 178 176 180 184 185 195 198 196 197 201 203
175 178 179 186 189 193 205 215 212 224 238 235 229 224 239 267 257 219 207 210 202 194 203 224 226 230 210 190 195 202 195 190 181 176 188 187 194 201 194 200 211 209 209
179 182 180 185 190 198 205 213 223 226 228 226 228 226 250 258 218 202 192 195 185 185 175 155 165 182 183 193 199 194 192 181 183 186 182 199 198 195 201 209 220 219 218
176 182 186 195 199 212 215 215 224 225 223 214 219 226 244 202 183 184 174 181 180 180 183 179 170 173 183 192 199 200 195 190 188 187 192 197 196 201 203 217 230 225 226